Akron, CO

2:02 PM MDT on July 20, 2017 (GMT -0600)
Akron-Washington County

Weather History for KAKO - January, 2013

Change the Weather History Date:

Monday, January 14, 2013

  Actual Average Record
Temperature  
Mean Temperature 7 °F 29 °F  
Max Temperature 15 °F 40 °F 59 °F (1975)
Min Temperature -2 °F 17 °F -11 °F (1972)
Degree Days  
Heating Degree Days 58    
Month to date heating degree days 597  
Cooling Degree Days 0    
Month to date cooling degree days 0  
Moisture  
Dew Point 3 °F    
Average Humidity 78    
Maximum Humidity 88    
Minimum Humidity 67    
Precipitation  
Precipitation T in 0.01 in 0.52 in (1960)
Month to date precipitation T 0.11  
Year to date precipitation T 0.11  
Sea Level Pressure  
Sea Level Pressure 30.25 in    
Wind  
Wind Speed 4 mph (SSE)    
Max Wind Speed 13 mph    
Max Gust Speed 14 mph    
Visibility 6 miles    
Events Snow    
T = Trace of Precipitation, MM = Missing Value Source: NWS Daily Summary

Daily Weather History Graph

Daily Weather History Graph

Search for Another Location

Airport or City:

Trip Planner

Search our weather history database for the weather conditions in past years. The results will help you decide how hot, cold, wet, or windy it might be!

Date:

Astronomy

Jan. 14, 2013 Rise Set
Actual Time 7:13 AM MST 4:50 PM MST
Civil Twilight 6:43 AM MST 5:20 PM MST
Nautical Twilight 6:10 AM MST 5:54 PM MST
Astronomical Twilight 5:37 AM MST 6:26 PM MST
Moon 8:48 AM MST (1/14) 8:39 PM MST (1/14)
Length of Visible Light 10h 37m
Length of Day
9h 37m
Waxing Crescent, 12% of the Moon is Illuminated
Jan 14
Waxing Crescent
Jan 18
First Quarter
Jan 26
Full
Feb 3
Last Quarter
Feb 10
New

Hourly Weather History & Observations

Time (MST) Temp. Windchill Dew Point Humidity Pressure Visibility Wind Dir Wind Speed Gust Speed Precip Events Conditions
12:53 AM 1.0 °F - -5.1 °F 75% 30.36 in 10.0 mi Calm Calm - N/A   Overcast
1:53 AM 3.9 °F -5.3 °F -2.0 °F 76% 30.35 in 10.0 mi SW 4.6 mph - N/A   Overcast
2:53 AM 3.9 °F - -2.0 °F 76% 30.35 in 10.0 mi Calm Calm - N/A   Overcast
3:53 AM 7.0 °F - 1.0 °F 77% 30.34 in 10.0 mi Calm Calm - N/A   Overcast
4:53 AM 8.1 °F - 1.9 °F 76% 30.35 in 9.0 mi Calm Calm - 0.00 in Snow Light Snow
5:40 AM 6.8 °F -2.0 °F 1.4 °F 79% 30.12 in 2.0 mi SSE 4.6 mph - 0.00 in Snow Light Snow
5:53 AM 7.0 °F 0.1 °F 3.0 °F 84% 30.39 in 2.0 mi SE 3.5 mph - 0.00 in Snow Light Snow
6:06 AM 6.8 °F -3.5 °F 3.2 °F 85% 30.13 in 4.0 mi SE 5.8 mph - 0.00 in Snow Light Snow
6:53 AM 7.0 °F 0.1 °F 3.0 °F 84% 30.42 in 4.0 mi ESE 3.5 mph - 0.00 in Snow Light Snow
7:03 AM 6.8 °F -2.0 °F 3.2 °F 85% 30.15 in 2.0 mi ESE 4.6 mph - 0.00 in Snow Light Snow
7:11 AM 8.6 °F 2.0 °F 3.2 °F 79% 30.15 in 1.5 mi East 3.5 mph - 0.00 in Snow Light Snow
7:28 AM 6.8 °F -0.1 °F 3.2 °F 85% 30.16 in 1.0 mi ESE 3.5 mph - 0.00 in Snow Light Snow
7:42 AM 8.6 °F 0.1 °F 3.2 °F 79% 30.16 in 1.5 mi ESE 4.6 mph - 0.00 in Snow Light Snow
7:53 AM 8.1 °F -3.2 °F 3.9 °F 83% 30.43 in 1.0 mi SE 6.9 mph - 0.00 in Snow Light Snow
8:03 AM 8.6 °F -3.7 °F 3.2 °F 79% 30.16 in 1.5 mi ESE 8.1 mph - 0.00 in Snow Light Snow
8:19 AM 8.6 °F -2.6 °F 3.2 °F 79% 30.16 in 1.0 mi SE 6.9 mph - 0.00 in Snow Light Snow
8:29 AM 8.6 °F -2.6 °F 3.2 °F 79% 30.16 in 1.5 mi SE 6.9 mph - 0.00 in Snow Light Snow
8:38 AM 8.6 °F -3.7 °F 3.2 °F 79% 30.16 in 1.2 mi SE 8.1 mph - 0.00 in Snow Light Snow
8:46 AM 8.6 °F -2.6 °F 3.2 °F 79% 30.16 in 1.8 mi SE 6.9 mph - 0.00 in Snow Light Snow
8:53 AM 9.0 °F -3.2 °F 5.0 °F 84% 30.42 in 1.8 mi ESE 8.1 mph - 0.00 in Snow Light Snow
9:20 AM 8.6 °F -1.3 °F 5.0 °F 85% 30.15 in 1.2 mi ESE 5.8 mph - 0.00 in Snow Light Snow
9:33 AM 10.4 °F -1.5 °F 5.0 °F 79% 30.15 in 1.8 mi SE 8.1 mph - 0.00 in Snow Light Snow
9:53 AM 10.0 °F -1.9 °F 5.0 °F 80% 30.40 in 2.0 mi SE 8.1 mph - 0.00 in Snow Light Snow
10:07 AM 10.4 °F -1.5 °F 5.0 °F 79% 30.14 in 1.8 mi ESE 8.1 mph - 0.00 in Snow Light Snow
10:38 AM 10.4 °F -0.4 °F 6.8 °F 85% 30.13 in 2.5 mi SE 6.9 mph - 0.00 in Snow Light Snow
10:53 AM 10.9 °F -0.8 °F 6.1 °F 81% 30.38 in 5.0 mi SE 8.1 mph - 0.00 in   Haze
11:29 AM 12.2 °F 0.7 °F 6.8 °F 79% 30.10 in 7.0 mi South 8.1 mph - N/A   Overcast
11:37 AM 12.2 °F 0.7 °F 6.8 °F 79% 30.09 in 8.0 mi South 8.1 mph - N/A   Overcast
11:53 AM 12.0 °F 0.5 °F 5.0 °F 73% 30.33 in 8.0 mi South 8.1 mph - N/A   Overcast
12:53 PM 12.9 °F 5.2 °F 5.0 °F 71% 30.30 in 10.0 mi South 4.6 mph - N/A   Overcast
1:17 PM 14.0 °F 5.1 °F 6.8 °F 73% 30.05 in 10.0 mi SW 5.8 mph - N/A   Overcast
1:53 PM 14.0 °F 5.1 °F 5.0 °F 67% 30.29 in 10.0 mi WSW 5.8 mph - N/A   Overcast
2:23 PM 14.0 °F 5.1 °F 5.0 °F 67% 30.06 in 10.0 mi WSW 5.8 mph - N/A   Mostly Cloudy
3:17 PM 12.2 °F 6.1 °F 5.0 °F 73% 30.07 in 10.0 mi NW 3.5 mph - N/A   Overcast
3:53 PM 12.9 °F 6.9 °F 5.0 °F 71% 30.31 in 10.0 mi WNW 3.5 mph - N/A   Mostly Cloudy
4:53 PM 10.9 °F 2.9 °F 3.9 °F 73% 30.32 in 10.0 mi WNW 4.6 mph - N/A   Overcast
5:53 PM 9.0 °F 2.4 °F 3.9 °F 80% 30.35 in 10.0 mi NW 3.5 mph - N/A   Mostly Cloudy
6:53 PM 3.9 °F -5.3 °F -0.0 °F 84% 30.37 in 10.0 mi WNW 4.6 mph - N/A   Clear
7:53 PM 1.9 °F -11.8 °F -2.0 °F 83% 30.36 in 9.0 mi West 8.1 mph - N/A   Clear
8:53 PM -0.0 °F -18.0 °F -4.0 °F 83% 30.35 in 10.0 mi West 12.7 mph - N/A   Clear
9:53 PM 1.9 °F -13.8 °F -2.0 °F 83% 30.33 in 10.0 mi West 10.4 mph - N/A   Clear
10:53 PM -0.9 °F -14.1 °F -5.1 °F 83% 30.34 in 10.0 mi SW 6.9 mph - N/A   Clear
11:53 PM -0.0 °F -15.3 °F -4.0 °F 83% 30.32 in 10.0 mi West 9.2 mph - N/A   Clear